Time,TemperatureF,DewpointF,PressureIn,WindDirection,WindDirectionDegrees,WindSpeedMPH,WindSpeedGustMPH,Humidity,HourlyPrecipIn,Conditions,Clouds,dailyrainin,SolarRadiationWatts/m^2,SoftwareType,DateUTC
2013-07-21 00:00:00,72.5,68.1,30.06,NE,45,3.6,5.6,86,0.00,RA,BKN,0.00,0.0,WeatherDisplay:10.37,2013-07-21 10:00:00,
2013-07-21 00:05:00,72.5,68.1,30.06,NE,45,2.0,2.3,86,0.00,RA,BKN,0.00,0.0,WeatherDisplay:10.37,2013-07-21 10:05:00,
2013-07-21 00:10:00,72.4,68.0,30.06,East,90,3.1,0.0,86,0.00,RA,BKN,0.00,0.0,WeatherDisplay:10.37,2013-07-21 10:10:00,
2013-07-21 00:15:00,72.5,68.4,30.06,NNE,22,4.9,6.9,87,0.00,SCT,BKN,0.00,0.0,WeatherDisplay:10.37,2013-07-21 10:15:00,
2013-07-21 00:20:00,72.5,67.7,30.06,NE,45,4.5,5.8,85,0.00,SCT,BKN,0.00,0.0,WeatherDisplay:10.37,2013-07-21 10:20:00,
2013-07-21 00:25:00,72.7,67.6,30.06,East,90,5.4,5.8,84,0.00,SCT,BKN,0.00,0.0,WeatherDisplay:10.37,2013-07-21 10:25:00,
2013-07-21 00:30:00,72.9,67.7,30.06,NE,45,6.2,8.1,84,0.00,SCT,BKN,0.00,0.0,WeatherDisplay:10.37,2013-07-21 10:30:00,
2013-07-21 00:35:00,72.9,67.4,30.06,ENE,68,6.0,6.9,83,0.00,SCT,BKN,0.00,0.0,WeatherDisplay:10.37,2013-07-21 10:35:00,
2013-07-21 00:40:00,73.0,67.9,30.06,NE,45,4.0,4.3,84,0.00,SCT,BKN,0.00,0.0,WeatherDisplay:10.37,2013-07-21 10:40:00,
2013-07-21 00:45:00,72.9,67.7,30.06,NE,45,5.9,6.9,84,0.00,SCT,BKN,0.00,0.0,WeatherDisplay:10.37,2013-07-21 10:45:00,
2013-07-21 00:50:00,73.0,67.9,30.06,NE,45,5.6,8.1,84,0.00,SCT,BKN,0.00,0.0,WeatherDisplay:10.37,2013-07-21 10:50:00,
2013-07-21 00:55:00,73.0,67.2,30.06,ENE,68,3.3,4.0,82,0.00,SCT,BKN,0.00,0.0,WeatherDisplay:10.37,2013-07-21 10:55:00,
2013-07-21 01:00:00,73.2,67.4,30.06,NE,45,3.6,6.9,82,0.00,SCT,BKN,0.00,0.0,WeatherDisplay:10.37,2013-07-21 11:00:00,
2013-07-21 01:05:00,73.2,67.0,30.06,NE,45,2.9,7.4,81,0.00,SCT,BKN,0.00,0.0,WeatherDisplay:10.37,2013-07-21 11:05:00,
2013-07-21 01:10:00,73.2,67.0,30.06,NE,45,3.6,5.8,81,0.00,SCT,BKN,0.00,0.0,WeatherDisplay:10.37,2013-07-21 11:10:00,
2013-07-21 01:15:00,73.4,66.9,30.06,NNW,338,2.6,5.9,80,0.00,SCT,BKN,0.00,0.0,WeatherDisplay:10.37,2013-07-21 11:15:00,
2013-07-21 01:20:00,73.4,66.9,30.06,East,90,2.9,5.8,80,0.00,SCT,BKN,0.00,0.0,WeatherDisplay:10.37,2013-07-21 11:20:00,
2013-07-21 01:25:00,73.4,66.9,30.03,NNE,22,4.3,4.9,80,0.00,SCT,BKN,0.00,0.0,WeatherDisplay:10.37,2013-07-21 11:25:00,
2013-07-21 01:30:00,73.6,67.0,30.03,NNW,338,3.1,5.8,80,0.00,SCT,BKN,0.00,0.0,WeatherDisplay:10.37,2013-07-21 11:30:00,
2013-07-21 01:35:00,73.4,66.9,30.03,SE,135,0.9,1.4,80,0.00,SCT,BKN,0.00,0.0,WeatherDisplay:10.37,2013-07-21 11:35:00,
2013-07-21 01:40:00,73.2,66.7,30.06,East,90,2.4,3.5,80,0.00,SCT,BKN,0.00,0.0,WeatherDisplay:10.37,2013-07-21 11:40:00,
2013-07-21 01:45:00,73.4,66.9,30.06,NE,45,2.6,4.6,80,0.00,SCT,BKN,0.00,0.0,WeatherDisplay:10.37,2013-07-21 11:45:00,
2013-07-21 01:50:00,73.2,66.7,30.06,NW,315,1.4,3.5,80,0.00,SCT,BKN,0.00,0.0,WeatherDisplay:10.37,2013-07-21 11:50:00,
2013-07-21 01:55:00,73.4,66.9,30.06,East,90,3.3,3.5,80,0.00,SCT,BKN,0.00,0.0,WeatherDisplay:10.37,2013-07-21 11:55:00,
2013-07-21 02:00:00,73.4,66.5,30.06,NE,45,4.0,4.7,79,0.00,SCT,BKN,0.00,0.0,WeatherDisplay:10.37,2013-07-21 12:00:00,
2013-07-21 02:05:00,73.4,66.5,30.06,NE,45,2.2,3.8,79,0.00,SCT,BKN,0.00,0.0,WeatherDisplay:10.37,2013-07-21 12:05:00,
2013-07-21 02:10:00,73.6,66.3,30.03,NE,45,2.4,4.6,78,0.00,SCT,BKN,0.00,0.0,WeatherDisplay:10.37,2013-07-21 12:10:00,
2013-07-21 02:15:00,73.6,66.3,30.03,NE,45,2.2,3.5,78,0.00,SCT,BKN,0.00,0.0,WeatherDisplay:10.37,2013-07-21 12:15:00,
2013-07-21 02:20:00,73.8,66.5,30.03,NNE,22,2.0,3.5,78,0.00,SCT,BKN,0.00,0.0,WeatherDisplay:10.37,2013-07-21 12:20:00,
2013-07-21 02:25:00,73.8,66.5,30.03,ENE,68,2.0,4.6,78,0.00,SCT,BKN,0.00,0.0,WeatherDisplay:10.37,2013-07-21 12:25:00,
2013-07-21 02:30:00,73.8,66.5,30.03,East,90,3.6,4.6,78,0.00,SCT,BKN,0.00,0.0,WeatherDisplay:10.37,2013-07-21 12:30:00,
2013-07-21 02:35:00,73.8,66.5,30.03,North,0,3.1,4.6,78,0.00,SCT,BKN,0.00,0.0,WeatherDisplay:10.37,2013-07-21 12:35:00,
2013-07-21 02:40:00,73.9,66.6,30.03,NE,45,3.3,4.6,78,0.00,SCT,BKN,0.00,0.0,WeatherDisplay:10.37,2013-07-21 12:40:00,
2013-07-21 02:45:00,73.8,66.5,30.03,ESE,112,3.1,4.6,78,0.00,SCT,BKN,0.00,0.0,WeatherDisplay:10.37,2013-07-21 12:45:00,
2013-07-21 02:50:00,73.8,66.5,30.03,NE,45,2.0,4.6,78,0.00,SCT,BKN,0.00,0.0,WeatherDisplay:10.37,2013-07-21 12:50:00,
2013-07-21 02:55:00,73.8,66.5,30.03,NW,315,2.0,2.3,78,0.00,SCT,BKN,0.00,0.0,WeatherDisplay:10.37,2013-07-21 12:55:00,
2013-07-21 03:00:00,73.6,65.9,30.03,East,90,2.4,2.4,77,0.00,SCT,BKN,0.00,0.0,WeatherDisplay:10.37,2013-07-21 13:00:00,
2013-07-21 03:05:00,73.4,65.7,30.03,NE,45,3.1,3.8,77,0.00,SCT,BKN,0.00,0.0,WeatherDisplay:10.37,2013-07-21 13:05:00,
2013-07-21 03:10:00,73.6,65.9,30.00,NNE,22,4.0,4.9,77,0.00,SCT,BKN,0.00,0.0,WeatherDisplay:10.37,2013-07-21 13:10:00,
2013-07-21 03:15:00,73.6,66.3,30.00,NNE,22,2.9,5.8,78,0.00,SCT,BKN,0.00,0.0,WeatherDisplay:10.37,2013-07-21 13:15:00,
2013-07-21 03:20:00,73.4,66.9,30.00,ENE,68,3.1,4.6,80,0.00,SCT,BKN,0.00,0.0,WeatherDisplay:10.37,2013-07-21 13:20:00,
2013-07-21 03:25:00,72.9,67.0,30.00,East,90,3.3,4.7,82,0.00,SCT,BKN,0.00,0.0,WeatherDisplay:10.37,2013-07-21 13:25:00,
2013-07-21 03:30:00,72.5,67.0,30.00,NE,45,2.9,4.6,83,0.00,SCT,BKN,0.00,0.0,WeatherDisplay:10.37,2013-07-21 13:30:00,
2013-07-21 03:35:00,72.5,67.7,30.00,NNW,338,4.0,5.8,85,0.00,SCT,BKN,0.00,0.0,WeatherDisplay:10.37,2013-07-21 13:35:00,
2013-07-21 03:40:00,72.3,67.6,30.00,ENE,68,3.6,4.3,85,0.00,SCT,BKN,0.00,0.0,WeatherDisplay:10.37,2013-07-21 13:40:00,
2013-07-21 03:45:00,72.3,67.6,30.00,SW,225,2.2,3.6,85,0.00,SCT,BKN,0.00,0.0,WeatherDisplay:10.37,2013-07-21 13:45:00,
2013-07-21 03:50:00,72.1,67.7,30.00,NE,45,4.5,6.9,86,0.00,SCT,BKN,0.00,0.0,WeatherDisplay:10.37,2013-07-21 13:50:00,
2013-07-21 03:55:00,72.7,67.6,30.00,NE,45,6.0,10.4,84,0.00,SCT,BKN,0.00,0.0,WeatherDisplay:10.37,2013-07-21 13:55:00,
2013-07-21 04:00:00,72.7,67.6,30.00,ENE,68,2.4,4.6,84,0.00,SCT,BKN,0.00,0.0,WeatherDisplay:10.37,2013-07-21 14:00:00,
2013-07-21 04:05:00,72.3,67.2,30.00,NNE,22,0.9,2.3,84,0.00,SCT,BKN,0.00,0.0,WeatherDisplay:10.37,2013-07-21 14:05:00,
2013-07-21 04:10:00,72.7,67.2,30.00,NE,45,4.3,9.2,83,0.00,SCT,BKN,0.00,0.0,WeatherDisplay:10.37,2013-07-21 14:10:00,
2013-07-21 04:15:00,72.3,67.6,30.00,NNE,22,2.9,4.6,85,0.00,SCT,BKN,0.00,0.0,WeatherDisplay:10.37,2013-07-21 14:15:00,
2013-07-21 04:20:00,72.3,67.6,30.00,ENE,68,3.3,4.6,85,0.00,SCT,BKN,0.00,0.0,WeatherDisplay:10.37,2013-07-21 14:20:00,
2013-07-21 04:25:00,72.1,67.7,30.00,NE,45,4.3,5.8,86,0.00,SCT,BKN,0.00,0.0,WeatherDisplay:10.37,2013-07-21 14:25:00,
2013-07-21 04:30:00,72.1,67.4,30.00,NNE,22,2.6,8.1,85,0.00,SCT,BKN,0.00,0.0,WeatherDisplay:10.37,2013-07-21 14:30:00,
2013-07-21 04:35:00,72.1,67.4,30.00,NW,315,6.4,6.4,85,0.00,SCT,BKN,0.00,0.0,WeatherDisplay:10.37,2013-07-21 14:35:00,
2013-07-21 04:40:00,72.3,66.9,30.00,NE,45,4.0,4.9,83,0.00,SCT,BKN,0.00,0.0,WeatherDisplay:10.37,2013-07-21 14:40:00,
2013-07-21 04:45:00,72.1,67.0,30.00,ENE,68,4.7,5.9,84,0.00,SCT,BKN,0.00,0.0,WeatherDisplay:10.37,2013-07-21 14:45:00,
2013-07-21 04:50:00,72.3,66.5,30.00,NE,45,4.3,6.9,82,0.00,SCT,BKN,0.00,0.0,WeatherDisplay:10.37,2013-07-21 14:50:00,
2013-07-21 04:55:00,72.5,66.7,30.00,NE,45,4.7,5.8,82,0.00,SCT,BKN,0.00,0.0,WeatherDisplay:10.37,2013-07-21 14:55:00,
2013-07-21 05:00:00,72.5,66.7,30.00,NE,45,4.7,5.8,82,0.00,SCT,BKN,0.00,0.0,WeatherDisplay:10.37,2013-07-21 15:00:00,
2013-07-21 05:05:00,72.7,66.5,30.00,NE,45,4.9,6.9,81,0.00,SCT,BKN,0.00,0.0,WeatherDisplay:10.37,2013-07-21 15:05:00,
2013-07-21 05:10:00,72.7,66.9,30.00,ENE,68,3.6,4.9,82,0.00,SCT,BKN,0.00,0.0,WeatherDisplay:10.37,2013-07-21 15:10:00,
2013-07-21 05:15:00,72.5,66.7,30.00,NNE,22,3.6,4.6,82,0.00,SCT,BKN,0.00,0.0,WeatherDisplay:10.37,2013-07-21 15:15:00,
2013-07-21 05:20:00,72.5,66.0,30.00,NE,45,3.6,3.6,80,0.00,SCT,BKN,0.00,0.0,WeatherDisplay:10.37,2013-07-21 15:20:00,
2013-07-21 05:25:00,72.7,66.2,30.00,ENE,68,4.0,5.8,80,0.00,SCT,BKN,0.00,0.0,WeatherDisplay:10.37,2013-07-21 15:25:00,
2013-07-21 05:30:00,72.7,66.2,30.00,ENE,68,2.9,4.6,80,0.00,SCT,BKN,0.00,0.0,WeatherDisplay:10.37,2013-07-21 15:30:00,
2013-07-21 05:35:00,72.7,66.2,30.00,NNE,22,3.3,4.6,80,0.00,SCT,BKN,0.00,0.0,WeatherDisplay:10.37,2013-07-21 15:35:00,
2013-07-21 05:40:00,72.7,66.2,30.00,NNE,22,3.1,3.5,80,0.00,SCT,BKN,0.00,0.0,WeatherDisplay:10.37,2013-07-21 15:40:00,
2013-07-21 05:45:00,72.3,65.8,30.00,SSW,202,1.2,1.2,80,0.00,SCT,BKN,0.00,0.0,WeatherDisplay:10.37,2013-07-21 15:45:00,
2013-07-21 05:50:00,72.1,66.3,30.00,NE,45,2.0,3.5,82,0.00,SCT,BKN,0.00,0.0,WeatherDisplay:10.37,2013-07-21 15:50:00,
2013-07-21 05:55:00,72.1,66.0,30.00,South,180,2.4,4.6,81,0.00,SCT,BKN,0.00,0.0,WeatherDisplay:10.37,2013-07-21 15:55:00,
2013-07-21 06:00:00,72.1,66.0,30.00,ESE,112,2.0,2.4,81,0.00,SCT,BKN,0.00,0.0,WeatherDisplay:10.37,2013-07-21 16:00:00,
2013-07-21 06:05:00,72.1,66.0,30.00,NE,45,4.3,5.8,81,0.00,SCT,BKN,0.00,0.0,WeatherDisplay:10.37,2013-07-21 16:05:00,
2013-07-21 06:10:00,72.1,66.3,30.00,NE,45,3.6,4.6,82,0.00,SCT,BKN,0.00,0.0,WeatherDisplay:10.37,2013-07-21 16:10:00,
2013-07-21 06:15:00,72.1,66.7,30.00,East,90,2.4,4.7,83,0.00,SCT,BKN,0.00,0.0,WeatherDisplay:10.37,2013-07-21 16:15:00,
2013-07-21 06:20:00,72.1,66.7,30.00,NE,45,1.4,3.5,83,0.00,SCT,BKN,0.00,0.0,WeatherDisplay:10.37,2013-07-21 16:20:00,
2013-07-21 06:25:00,72.1,66.7,30.03,NNE,22,2.2,4.6,83,0.00,SCT,BKN,0.00,0.0,WeatherDisplay:10.37,2013-07-21 16:25:00,
2013-07-21 06:30:00,72.1,67.0,30.03,NE,45,4.0,4.6,84,0.00,SCT,BKN,0.00,0.0,WeatherDisplay:10.37,2013-07-21 16:30:00,
2013-07-21 06:35:00,72.5,66.7,30.03,NNE,22,3.3,3.5,82,0.00,SCT,BKN,0.00,0.0,WeatherDisplay:10.37,2013-07-21 16:35:00,
2013-07-21 06:40:00,72.5,66.3,30.03,ESE,112,2.6,4.6,81,0.00,SCT,BKN,0.00,0.0,WeatherDisplay:10.37,2013-07-21 16:40:00,
2013-07-21 06:45:00,72.7,66.5,30.03,NNW,338,2.9,4.6,81,0.00,SCT,BKN,0.00,0.0,WeatherDisplay:10.37,2013-07-21 16:45:00,
2013-07-21 06:50:00,72.9,66.3,30.03,NE,45,6.0,6.0,80,0.00,SCT,BKN,0.00,0.0,WeatherDisplay:10.37,2013-07-21 16:50:00,
2013-07-21 06:55:00,73.0,66.5,30.03,NE,45,3.1,4.6,80,0.00,SCT,BKN,0.00,0.0,WeatherDisplay:10.37,2013-07-21 16:55:00,
2013-07-21 07:00:00,73.0,66.5,30.03,NE,45,2.6,5.8,80,0.00,SCT,BKN,0.00,0.0,WeatherDisplay:10.37,2013-07-21 17:00:00,
2013-07-21 07:05:00,73.0,66.5,30.03,NE,45,4.0,5.8,80,0.00,SCT,BKN,0.00,0.0,WeatherDisplay:10.37,2013-07-21 17:05:00,
2013-07-21 07:10:00,73.0,66.9,30.03,ENE,68,3.1,4.6,81,0.00,SCT,BKN,0.00,0.0,WeatherDisplay:10.37,2013-07-21 17:10:00,
2013-07-21 07:15:00,73.0,66.9,30.03,NE,45,5.4,6.4,81,0.00,SCT,BKN,0.00,0.0,WeatherDisplay:10.37,2013-07-21 17:15:00,
2013-07-21 07:20:00,73.2,67.0,30.03,NE,45,2.9,4.6,81,0.00,SCT,BKN,0.00,0.0,WeatherDisplay:10.37,2013-07-21 17:20:00,
2013-07-21 07:25:00,73.2,67.0,30.03,NE,45,4.9,6.9,81,0.00,SCT,BKN,0.00,0.0,WeatherDisplay:10.37,2013-07-21 17:25:00,
2013-07-21 07:30:00,73.4,66.5,30.03,NE,45,4.9,6.9,79,0.00,SCT,BKN,0.00,0.0,WeatherDisplay:10.37,2013-07-21 17:30:00,
2013-07-21 07:35:00,73.8,66.1,30.03,ENE,68,4.3,5.8,77,0.00,SCT,BKN,0.00,0.0,WeatherDisplay:10.37,2013-07-21 17:35:00,
2013-07-21 07:40:00,73.9,66.3,30.03,NNE,22,3.8,6.9,77,0.00,SCT,BKN,0.00,0.0,WeatherDisplay:10.37,2013-07-21 17:40:00,
2013-07-21 07:45:00,73.9,66.3,30.03,NE,45,4.7,5.8,77,0.00,SCT,BKN,0.00,0.0,WeatherDisplay:10.37,2013-07-21 17:45:00,
2013-07-21 07:50:00,74.3,66.6,30.03,NE,45,4.0,5.8,77,0.00,SCT,BKN,0.00,0.0,WeatherDisplay:10.37,2013-07-21 17:50:00,
2013-07-21 07:55:00,74.3,65.9,30.03,NNE,22,4.7,5.9,75,0.00,SCT,BKN,0.00,0.0,WeatherDisplay:10.37,2013-07-21 17:55:00,
2013-07-21 08:00:00,74.3,65.9,30.03,NE,45,4.3,5.9,75,0.00,SCT,BKN,0.00,0.0,WeatherDisplay:10.37,2013-07-21 18:00:00,
2013-07-21 08:05:00,74.3,65.5,30.03,NE,45,5.9,6.9,74,0.00,SCT,BKN,0.00,0.0,WeatherDisplay:10.37,2013-07-21 18:05:00,
2013-07-21 08:10:00,74.5,65.6,30.06,NE,45,3.8,5.8,74,0.00,SCT,BKN,0.00,0.0,WeatherDisplay:10.37,2013-07-21 18:10:00,
2013-07-21 08:15:00,74.7,66.6,30.06,NE,45,4.5,5.8,76,0.00,SCT,BKN,0.00,125.0,WeatherDisplay:10.37,2013-07-21 18:15:00,
2013-07-21 08:20:00,74.5,66.0,30.06,NE,45,6.0,6.0,75,0.00,SCT,BKN,0.00,125.0,WeatherDisplay:10.37,2013-07-21 18:20:00,
2013-07-21 08:25:00,74.7,66.6,30.03,ENE,68,2.0,4.6,76,0.00,SCT,BKN,0.00,125.0,WeatherDisplay:10.37,2013-07-21 18:25:00,
2013-07-21 08:30:00,74.8,67.1,30.03,NE,45,3.3,4.3,77,0.00,SCT,BKN,0.00,125.0,WeatherDisplay:10.37,2013-07-21 18:30:00,
2013-07-21 08:35:00,75.0,65.4,30.03,ENE,68,4.7,6.0,72,0.00,SCT,BKN,0.00,125.0,WeatherDisplay:10.37,2013-07-21 18:35:00,
2013-07-21 08:40:00,75.2,66.3,30.06,ENE,68,3.6,5.4,74,0.00,SCT,BKN,0.00,125.0,WeatherDisplay:10.37,2013-07-21 18:40:00,
2013-07-21 08:45:00,75.2,65.6,30.06,NE,45,3.6,5.8,72,0.00,SCT,BKN,0.00,125.0,WeatherDisplay:10.37,2013-07-21 18:45:00,
2013-07-21 08:50:00,75.2,65.6,30.06,ENE,68,4.3,6.4,72,0.00,SCT,BKN,0.00,125.0,WeatherDisplay:10.37,2013-07-21 18:50:00,
2013-07-21 08:55:00,75.4,65.3,30.06,NE,45,4.0,4.0,71,0.00,SCT,BKN,0.00,125.0,WeatherDisplay:10.37,2013-07-21 18:55:00,
2013-07-21 09:00:00,75.4,65.3,30.06,NNE,22,4.9,5.8,71,0.00,SCT,BKN,0.00,125.0,WeatherDisplay:10.37,2013-07-21 19:00:00,
2013-07-21 09:05:00,75.6,65.5,30.06,ENE,68,4.3,4.6,71,0.00,SCT,BKN,0.00,125.0,WeatherDisplay:10.37,2013-07-21 19:05:00,
2013-07-21 09:10:00,75.6,65.5,30.06,NE,45,2.9,3.5,71,0.00,SCT,BKN,0.00,125.0,WeatherDisplay:10.37,2013-07-21 19:10:00,
2013-07-21 09:15:00,75.7,65.7,30.06,NE,45,0.9,3.5,71,0.00,SCT,BKN,0.00,125.0,WeatherDisplay:10.37,2013-07-21 19:15:00,
2013-07-21 09:20:00,75.7,65.7,30.06,East,90,3.3,4.6,71,0.00,SCT,BKN,0.00,125.0,WeatherDisplay:10.37,2013-07-21 19:20:00,
2013-07-21 09:25:00,75.9,65.8,30.06,ENE,68,2.0,4.6,71,0.04,RA,BKN,0.04,125.0,WeatherDisplay:10.37,2013-07-21 19:25:00,
2013-07-21 09:30:00,75.7,65.3,30.06,NE,45,3.6,5.8,70,0.04,RA,BKN,0.04,125.0,WeatherDisplay:10.37,2013-07-21 19:30:00,
2013-07-21 09:35:00,75.7,66.1,30.06,NE,45,2.9,3.5,72,0.04,SCT,BKN,0.04,125.0,WeatherDisplay:10.37,2013-07-21 19:35:00,
2013-07-21 09:40:00,75.9,65.0,30.06,ENE,68,4.5,6.9,69,0.04,SCT,BKN,0.04,125.0,WeatherDisplay:10.37,2013-07-21 19:40:00,
2013-07-21 09:45:00,75.7,64.8,30.06,NE,45,3.3,5.8,69,0.04,SCT,BKN,0.04,125.0,WeatherDisplay:10.37,2013-07-21 19:45:00,
2013-07-21 09:50:00,76.1,65.6,30.06,NE,45,4.7,5.8,70,0.04,SCT,BKN,0.04,125.0,WeatherDisplay:10.37,2013-07-21 19:50:00,
2013-07-21 09:55:00,76.5,65.5,30.06,NE,45,4.5,5.8,69,0.04,SCT,BKN,0.04,125.0,WeatherDisplay:10.37,2013-07-21 19:55:00,
2013-07-21 10:00:00,76.8,65.0,30.06,NNW,338,4.3,4.6,67,0.04,SCT,BKN,0.04,125.0,WeatherDisplay:10.37,2013-07-21 20:00:00,
2013-07-21 10:05:00,77.2,65.4,30.06,ENE,68,4.5,8.1,67,0.04,SCT,BKN,0.04,125.0,WeatherDisplay:10.37,2013-07-21 20:05:00,
2013-07-21 10:10:00,77.5,65.7,30.06,East,90,3.6,6.9,67,0.04,SCT,BKN,0.04,125.0,WeatherDisplay:10.37,2013-07-21 20:10:00,
2013-07-21 10:15:00,77.7,65.5,30.06,NE,45,4.5,6.9,66,0.04,SCT,BKN,0.04,125.0,WeatherDisplay:10.37,2013-07-21 20:15:00,
2013-07-21 10:20:00,77.7,65.0,30.06,NE,45,3.6,6.9,65,0.04,SCT,BKN,0.04,125.0,WeatherDisplay:10.37,2013-07-21 20:20:00,
2013-07-21 10:25:00,77.7,65.0,30.06,ENE,68,5.6,6.2,65,0.00,SCT,BKN,0.04,125.0,WeatherDisplay:10.37,2013-07-21 20:25:00,
2013-07-21 10:30:00,77.7,65.0,30.06,NE,45,4.3,5.8,65,0.00,SCT,BKN,0.04,125.0,WeatherDisplay:10.37,2013-07-21 20:30:00,
2013-07-21 10:35:00,77.7,64.6,30.06,ESE,112,3.6,5.8,64,0.00,SCT,BKN,0.04,125.0,WeatherDisplay:10.37,2013-07-21 20:35:00,
2013-07-21 10:40:00,77.9,64.7,30.06,NNW,338,4.5,6.0,64,0.00,SCT,BKN,0.04,125.0,WeatherDisplay:10.37,2013-07-21 20:40:00,
2013-07-21 10:45:00,78.1,64.9,30.06,NNE,22,3.6,6.0,64,0.00,SCT,BKN,0.04,125.0,WeatherDisplay:10.37,2013-07-21 20:45:00,
2013-07-21 10:50:00,78.4,64.3,30.06,ENE,68,3.6,6.9,62,0.00,SCT,BKN,0.04,125.0,WeatherDisplay:10.37,2013-07-21 20:50:00,
2013-07-21 10:55:00,78.4,64.8,30.06,East,90,4.5,6.0,63,0.00,SCT,BKN,0.04,125.0,WeatherDisplay:10.37,2013-07-21 20:55:00,
2013-07-21 11:00:00,78.6,64.0,30.06,NE,45,4.0,5.8,61,0.00,SCT,BKN,0.04,250.0,WeatherDisplay:10.37,2013-07-21 21:00:00,
2013-07-21 11:05:00,78.8,64.2,30.06,NNE,22,3.3,5.8,61,0.00,SCT,BKN,0.04,250.0,WeatherDisplay:10.37,2013-07-21 21:05:00,
2013-07-21 11:10:00,79.2,65.0,30.06,NE,45,2.9,4.6,62,0.00,SCT,BKN,0.04,250.0,WeatherDisplay:10.37,2013-07-21 21:10:00,
2013-07-21 11:15:00,79.0,63.9,30.06,North,0,5.6,5.8,60,0.00,SCT,BKN,0.04,250.0,WeatherDisplay:10.37,2013-07-21 21:15:00,
2013-07-21 11:20:00,79.2,63.6,30.06,NE,45,4.7,5.9,59,0.00,SCT,BKN,0.04,250.0,WeatherDisplay:10.37,2013-07-21 21:20:00,
2013-07-21 11:25:00,79.3,64.2,30.06,NNE,22,4.3,8.1,60,0.00,SCT,BKN,0.04,125.0,WeatherDisplay:10.37,2013-07-21 21:25:00,
2013-07-21 11:30:00,79.9,65.2,30.06,NE,45,4.5,5.8,61,0.00,SCT,BKN,0.04,375.0,WeatherDisplay:10.37,2013-07-21 21:30:00,
2013-07-21 11:35:00,80.1,64.4,30.06,ENE,68,7.8,8.1,59,0.00,SCT,BKN,0.04,250.0,WeatherDisplay:10.37,2013-07-21 21:35:00,
2013-07-21 11:40:00,81.0,65.3,30.06,NNE,22,5.6,7.6,59,0.00,SCT,BKN,0.04,500.0,WeatherDisplay:10.37,2013-07-21 21:40:00,
2013-07-21 11:45:00,82.0,64.8,30.06,NE,45,2.9,6.9,56,0.00,SCT,BKN,0.04,375.0,WeatherDisplay:10.37,2013-07-21 21:45:00,
2013-07-21 11:50:00,83.3,66.5,30.06,NNE,22,1.4,3.5,57,0.00,SCT,BKN,0.04,375.0,WeatherDisplay:10.37,2013-07-21 21:50:00,
2013-07-21 11:55:00,84.2,65.2,30.03,NE,45,4.0,6.9,53,0.00,SCT,BKN,0.04,875.0,WeatherDisplay:10.37,2013-07-21 21:55:00,
2013-07-21 12:00:00,84.6,63.9,30.03,NNE,22,4.0,5.8,50,0.00,SCT,BKN,0.04,1250.0,WeatherDisplay:10.37,2013-07-21 22:00:00,
2013-07-21 12:05:00,86.5,66.8,30.03,ENE,68,3.3,4.6,52,0.00,SCT,BKN,0.04,1625.0,WeatherDisplay:10.37,2013-07-21 22:05:00,
2013-07-21 12:10:00,87.1,66.2,30.03,NE,45,3.8,4.0,50,0.00,SCT,BKN,0.04,1625.0,WeatherDisplay:10.37,2013-07-21 22:10:00,
2013-07-21 12:15:00,87.3,65.2,30.03,ESE,112,4.5,6.9,48,0.00,SCT,BKN,0.04,1625.0,WeatherDisplay:10.37,2013-07-21 22:15:00,
2013-07-21 12:20:00,88.0,65.8,30.03,NE,45,4.5,5.8,48,0.00,SCT,BKN,0.04,1625.0,WeatherDisplay:10.37,2013-07-21 22:20:00,
2013-07-21 12:25:00,88.7,65.3,30.03,NE,45,4.7,5.8,46,0.00,SCT,BKN,0.04,1625.0,WeatherDisplay:10.37,2013-07-21 22:25:00,
2013-07-21 12:30:00,87.6,64.9,30.03,ENE,68,6.0,6.9,47,0.00,SCT,BKN,0.04,1625.0,WeatherDisplay:10.37,2013-07-21 22:30:00,
2013-07-21 12:35:00,87.6,63.7,30.03,ENE,68,6.4,6.4,45,0.00,SCT,BKN,0.04,1500.0,WeatherDisplay:10.37,2013-07-21 22:35:00,
2013-07-21 12:40:00,87.8,64.4,30.03,SE,135,2.6,6.9,46,0.00,SCT,BKN,0.04,1625.0,WeatherDisplay:10.37,2013-07-21 22:40:00,
2013-07-21 12:45:00,86.2,63.6,30.03,NE,45,4.3,5.8,47,0.00,SCT,BKN,0.04,1750.0,WeatherDisplay:10.37,2013-07-21 22:45:00,
2013-07-21 12:50:00,87.1,65.6,30.03,North,0,3.1,5.8,49,0.00,RA,BKN,0.04,1500.0,WeatherDisplay:10.37,2013-07-21 22:50:00,
2013-07-21 12:55:00,88.2,66.6,30.03,East,90,2.9,3.5,49,0.00,RA,BKN,0.04,1500.0,WeatherDisplay:10.37,2013-07-21 22:55:00,
2013-07-21 13:00:00,89.2,67.0,30.03,NE,45,2.4,3.5,48,0.00,SCT,BKN,0.04,1625.0,WeatherDisplay:10.37,2013-07-21 23:00:00,
2013-07-21 13:05:00,87.1,64.4,30.03,SE,135,3.6,5.8,47,0.00,SCT,BKN,0.04,500.0,WeatherDisplay:10.37,2013-07-21 23:05:00,
2013-07-21 13:10:00,85.3,64.0,30.03,SW,225,5.4,9.2,49,0.00,SCT,BKN,0.04,875.0,WeatherDisplay:10.37,2013-07-21 23:10:00,
2013-07-21 13:15:00,84.6,63.9,30.03,East,90,3.8,4.6,50,0.00,SCT,BKN,0.04,625.0,WeatherDisplay:10.37,2013-07-21 23:15:00,
2013-07-21 13:20:00,84.4,64.8,30.03,NNE,22,2.0,4.9,52,0.00,SCT,BKN,0.04,1000.0,WeatherDisplay:10.37,2013-07-21 23:20:00,
2013-07-21 13:25:00,84.9,65.3,30.00,NE,45,4.0,5.8,52,0.00,SCT,BKN,0.04,1125.0,WeatherDisplay:10.37,2013-07-21 23:25:00,
2013-07-21 13:30:00,85.1,64.9,30.00,NNE,22,4.0,8.1,51,0.00,SCT,BKN,0.04,1500.0,WeatherDisplay:10.37,2013-07-21 23:30:00,
2013-07-21 13:35:00,86.4,65.5,30.00,NE,45,3.8,4.6,50,0.00,SCT,BKN,0.04,1625.0,WeatherDisplay:10.37,2013-07-21 23:35:00,
2013-07-21 13:40:00,88.7,67.1,30.00,NE,45,2.9,3.5,49,0.00,SCT,BKN,0.04,375.0,WeatherDisplay:10.37,2013-07-21 23:40:00,
2013-07-21 13:45:00,88.5,65.1,30.00,NE,45,4.7,5.8,46,0.00,SCT,BKN,0.04,1625.0,WeatherDisplay:10.37,2013-07-21 23:45:00,
2013-07-21 13:50:00,86.9,64.8,30.00,NNE,22,3.3,6.0,48,0.00,SCT,BKN,0.04,625.0,WeatherDisplay:10.37,2013-07-21 23:50:00,
2013-07-21 13:55:00,85.3,64.5,30.00,East,90,3.6,8.1,50,0.00,SCT,BKN,0.04,1125.0,WeatherDisplay:10.37,2013-07-21 23:55:00,
2013-07-21 14:00:00,86.0,64.6,30.00,NE,45,3.3,4.3,49,0.00,SCT,BKN,0.04,500.0,WeatherDisplay:10.37,2013-07-22 00:00:00,
2013-07-21 14:05:00,86.7,64.7,30.00,East,90,6.0,9.2,48,0.00,SCT,BKN,0.04,1000.0,WeatherDisplay:10.37,2013-07-22 00:05:00,
2013-07-21 14:10:00,87.1,65.0,30.00,ENE,68,2.9,5.8,48,0.00,SCT,BKN,0.04,1250.0,WeatherDisplay:10.37,2013-07-22 00:10:00,
2013-07-21 14:15:00,86.9,64.2,30.00,NE,45,5.4,5.8,47,0.00,SCT,BKN,0.04,375.0,WeatherDisplay:10.37,2013-07-22 00:15:00,
2013-07-21 14:20:00,86.0,65.2,30.00,NNE,22,5.9,6.2,50,0.00,SCT,BKN,0.04,1500.0,WeatherDisplay:10.37,2013-07-22 00:20:00,
2013-07-21 14:25:00,86.0,65.8,29.97,NE,45,4.0,7.4,51,0.00,SCT,BKN,0.04,375.0,WeatherDisplay:10.37,2013-07-22 00:25:00,
2013-07-21 14:30:00,85.3,64.5,29.97,NNE,22,3.6,4.6,50,0.00,SCT,BKN,0.04,1500.0,WeatherDisplay:10.37,2013-07-22 00:30:00,
2013-07-21 14:35:00,86.5,64.5,29.97,NE,45,4.9,5.8,48,0.00,SCT,BKN,0.04,1375.0,WeatherDisplay:10.37,2013-07-22 00:35:00,
2013-07-21 14:41:00,87.6,66.1,30.00,East,90,3.8,4.6,49,0.00,SCT,BKN,0.04,1375.0,WeatherDisplay:10.37,2013-07-22 00:41:00,
2013-07-21 14:46:00,87.6,65.5,30.00,ENE,68,4.7,6.9,48,0.00,SCT,BKN,0.04,1000.0,WeatherDisplay:10.37,2013-07-22 00:46:00,
2013-07-21 14:51:00,86.7,64.1,30.00,ENE,68,4.9,5.8,47,0.00,SCT,BKN,0.04,1192.0,WeatherDisplay:10.37,2013-07-22 00:51:00,
2013-07-21 14:56:00,86.9,64.8,29.97,ENE,68,4.0,5.8,48,0.00,SCT,BKN,0.04,1178.0,WeatherDisplay:10.37,2013-07-22 00:56:00,
2013-07-21 15:01:00,88.0,65.2,29.97,NNE,22,3.3,4.6,47,0.00,SCT,BKN,0.04,1250.0,WeatherDisplay:10.37,2013-07-22 01:01:00,
2013-07-21 15:06:00,87.6,64.3,29.97,NE,45,5.4,5.8,46,0.00,SCT,BKN,0.04,1125.0,WeatherDisplay:10.37,2013-07-22 01:06:00,
2013-07-21 15:11:00,86.9,64.2,30.00,ENE,68,3.6,4.6,47,0.00,SCT,BKN,0.04,375.0,WeatherDisplay:10.37,2013-07-22 01:11:00,
2013-07-21 15:16:00,87.4,64.7,30.00,ENE,68,4.9,6.2,47,0.00,SCT,BKN,0.04,1125.0,WeatherDisplay:10.37,2013-07-22 01:16:00,
2013-07-21 15:21:00,87.1,63.8,30.00,East,90,4.7,6.9,46,0.00,SCT,BKN,0.04,1125.0,WeatherDisplay:10.37,2013-07-22 01:21:00,
2013-07-21 15:26:00,87.3,65.2,30.03,NE,45,4.5,5.9,48,0.00,SCT,BKN,0.04,1000.0,WeatherDisplay:10.37,2013-07-22 01:26:00,
2013-07-21 15:31:00,86.9,64.8,30.03,East,90,6.0,6.0,48,0.00,SCT,BKN,0.04,1000.0,WeatherDisplay:10.37,2013-07-22 01:31:00,
2013-07-21 15:36:00,86.4,63.1,30.03,NE,45,4.5,6.9,46,0.00,SCT,BKN,0.04,1000.0,WeatherDisplay:10.37,2013-07-22 01:36:00,
2013-07-21 15:41:00,86.9,64.2,30.00,ENE,68,4.0,8.1,47,0.00,SCT,BKN,0.04,875.0,WeatherDisplay:10.37,2013-07-22 01:41:00,
2013-07-21 15:46:00,86.5,63.9,30.00,NE,45,5.4,10.4,47,0.00,SCT,BKN,0.04,875.0,WeatherDisplay:10.37,2013-07-22 01:46:00,
2013-07-21 15:51:00,85.6,64.3,30.00,ENE,68,3.6,5.8,49,0.00,SCT,BKN,0.04,875.0,WeatherDisplay:10.37,2013-07-22 01:51:00,
2013-07-21 15:56:00,85.6,64.3,30.00,ENE,68,5.9,6.9,49,0.00,SCT,BKN,0.04,750.0,WeatherDisplay:10.37,2013-07-22 01:56:00,
2013-07-21 16:01:00,85.3,64.5,30.00,ENE,68,4.9,10.7,50,0.00,SCT,BKN,0.04,750.0,WeatherDisplay:10.37,2013-07-22 02:01:00,
2013-07-21 16:06:00,84.7,62.3,30.00,NE,45,5.6,6.9,47,0.00,SCT,BKN,0.04,750.0,WeatherDisplay:10.37,2013-07-22 02:06:00,
2013-07-21 16:11:00,84.2,62.4,30.00,ENE,68,5.9,6.9,48,0.00,SCT,BKN,0.04,625.0,WeatherDisplay:10.37,2013-07-22 02:11:00,
2013-07-21 16:16:00,84.7,64.0,30.00,NE,45,5.9,6.9,50,0.00,SCT,BKN,0.04,625.0,WeatherDisplay:10.37,2013-07-22 02:16:00,
2013-07-21 16:21:00,84.4,63.7,30.00,NNE,22,4.9,6.9,50,0.00,SCT,BKN,0.04,625.0,WeatherDisplay:10.37,2013-07-22 02:21:00,
2013-07-21 16:26:00,83.8,62.6,30.00,NE,45,4.9,6.4,49,0.00,SCT,BKN,0.04,500.0,WeatherDisplay:10.37,2013-07-22 02:26:00,
2013-07-21 16:31:00,84.0,63.4,30.00,NE,45,4.3,6.9,50,0.00,SCT,BKN,0.04,500.0,WeatherDisplay:10.37,2013-07-22 02:31:00,
2013-07-21 16:36:00,83.8,63.8,30.00,NE,45,6.4,8.1,51,0.00,SCT,BKN,0.04,500.0,WeatherDisplay:10.37,2013-07-22 02:36:00,
2013-07-21 16:41:00,83.7,64.2,30.00,ENE,68,4.9,6.9,52,0.00,SCT,BKN,0.04,375.0,WeatherDisplay:10.37,2013-07-22 02:41:00,
2013-07-21 16:46:00,83.8,63.2,30.00,NNE,22,5.6,10.4,50,0.00,SCT,BKN,0.04,250.0,WeatherDisplay:10.37,2013-07-22 02:46:00,
2013-07-21 16:51:00,83.8,63.8,30.00,NE,45,4.9,6.9,51,0.00,SCT,BKN,0.04,250.0,WeatherDisplay:10.37,2013-07-22 02:51:00,
2013-07-21 16:56:00,83.1,63.7,30.00,ENE,68,7.6,8.1,52,0.00,SCT,BKN,0.04,250.0,WeatherDisplay:10.37,2013-07-22 02:56:00,
2013-07-21 17:01:00,82.4,64.1,30.00,ENE,68,5.6,8.1,54,0.00,SCT,BKN,0.04,125.0,WeatherDisplay:10.37,2013-07-22 03:01:00,
2013-07-21 17:06:00,82.4,64.6,30.00,NNE,22,6.2,8.1,55,0.00,SCT,BKN,0.04,125.0,WeatherDisplay:10.37,2013-07-22 03:06:00,
2013-07-21 17:11:00,82.0,64.8,30.00,NE,45,6.4,8.5,56,0.00,SCT,BKN,0.04,125.0,WeatherDisplay:10.37,2013-07-22 03:11:00,
2013-07-21 17:16:00,81.5,63.8,30.00,NNE,22,7.1,8.1,55,0.00,SCT,BKN,0.04,125.0,WeatherDisplay:10.37,2013-07-22 03:16:00,
2013-07-21 17:21:00,82.0,63.8,30.00,NE,45,5.4,7.8,54,0.00,SCT,BKN,0.04,125.0,WeatherDisplay:10.37,2013-07-22 03:21:00,
2013-07-21 17:26:00,81.9,63.6,30.00,NNE,22,6.4,6.4,54,0.00,SCT,BKN,0.04,125.0,WeatherDisplay:10.37,2013-07-22 03:26:00,
2013-07-21 17:31:00,82.0,64.3,30.00,NNE,22,4.7,5.8,55,0.00,SCT,BKN,0.04,125.0,WeatherDisplay:10.37,2013-07-22 03:31:00,
2013-07-21 17:36:00,81.9,64.6,30.00,NE,45,4.0,5.9,56,0.00,SCT,BKN,0.04,0.0,WeatherDisplay:10.37,2013-07-22 03:36:00,
2013-07-21 17:41:00,81.9,64.1,30.00,NE,45,4.7,6.0,55,0.00,SCT,BKN,0.04,0.0,WeatherDisplay:10.37,2013-07-22 03:41:00,
2013-07-21 17:46:00,81.9,64.1,30.00,NNE,22,4.7,6.9,55,0.00,SCT,BKN,0.04,0.0,WeatherDisplay:10.37,2013-07-22 03:46:00,
2013-07-21 17:51:00,81.3,63.6,30.00,ENE,68,5.6,7.1,55,0.00,SCT,BKN,0.04,0.0,WeatherDisplay:10.37,2013-07-22 03:51:00,
2013-07-21 17:56:00,81.1,64.0,30.00,NE,45,5.6,8.1,56,0.00,SCT,BKN,0.04,0.0,WeatherDisplay:10.37,2013-07-22 03:56:00,
2013-07-21 18:01:00,81.1,65.0,30.00,ENE,68,5.6,5.8,58,0.00,SCT,BKN,0.04,0.0,WeatherDisplay:10.37,2013-07-22 04:01:00,
2013-07-21 18:02:00,81.0,64.8,30.00,NE,45,6.2,9.2,58,0.00,SCT,BKN,0.04,0.0,WeatherDisplay:10.37,2013-07-22 04:02:00,
2013-07-21 18:07:00,80.4,63.8,30.00,ENE,68,7.1,8.1,57,0.00,SCT,BKN,0.04,0.0,WeatherDisplay:10.37,2013-07-22 04:07:00,
2013-07-21 18:12:00,80.6,63.5,30.00,ENE,68,6.4,8.1,56,0.00,SCT,BKN,0.04,0.0,WeatherDisplay:10.37,2013-07-22 04:12:00,
2013-07-21 18:17:00,80.2,64.6,30.00,NE,45,5.4,8.1,59,0.00,SCT,BKN,0.04,0.0,WeatherDisplay:10.37,2013-07-22 04:17:00,
2013-07-21 18:22:00,80.1,63.5,30.00,NE,45,4.9,7.4,57,0.00,SCT,BKN,0.04,0.0,WeatherDisplay:10.37,2013-07-22 04:22:00,
2013-07-21 18:27:00,80.1,63.5,30.00,ENE,68,5.9,8.1,57,0.00,SCT,BKN,0.04,0.0,WeatherDisplay:10.37,2013-07-22 04:27:00,
2013-07-21 18:32:00,79.5,64.4,30.00,ENE,68,6.0,10.7,60,0.00,SCT,BKN,0.04,0.0,WeatherDisplay:10.37,2013-07-22 04:32:00,
2013-07-21 18:37:00,78.3,64.2,30.00,ENE,68,6.7,6.9,62,0.00,SCT,BKN,0.04,0.0,WeatherDisplay:10.37,2013-07-22 04:37:00,
2013-07-21 18:42:00,76.8,64.2,30.00,NE,45,3.8,6.0,65,0.00,SCT,BKN,0.04,0.0,WeatherDisplay:10.37,2013-07-22 04:42:00,
2013-07-21 18:47:00,76.3,63.6,30.00,ENE,68,5.4,6.9,65,0.00,SCT,BKN,0.04,0.0,WeatherDisplay:10.37,2013-07-22 04:47:00,
2013-07-21 18:52:00,75.9,63.3,30.00,NE,45,6.4,8.1,65,0.00,SCT,BKN,0.04,0.0,WeatherDisplay:10.37,2013-07-22 04:52:00,
2013-07-21 18:57:00,75.6,63.4,30.00,ENE,68,6.2,9.2,66,0.00,SCT,BKN,0.04,0.0,WeatherDisplay:10.37,2013-07-22 04:57:00,
2013-07-21 19:02:00,75.4,63.7,30.00,NE,45,6.7,9.2,67,0.00,SCT,BKN,0.04,0.0,WeatherDisplay:10.37,2013-07-22 05:02:00,
2013-07-21 19:07:00,75.2,63.5,30.00,ENE,68,6.9,6.9,67,0.00,SCT,BKN,0.04,0.0,WeatherDisplay:10.37,2013-07-22 05:07:00,
2013-07-21 19:12:00,75.0,64.2,30.00,NE,45,8.1,9.2,69,0.00,SCT,BKN,0.04,0.0,WeatherDisplay:10.37,2013-07-22 05:12:00,
2013-07-21 19:17:00,74.8,63.6,30.00,East,90,6.0,6.9,68,0.00,SCT,BKN,0.04,0.0,WeatherDisplay:10.37,2013-07-22 05:17:00,
2013-07-21 19:22:00,74.8,64.4,30.00,NE,45,6.4,8.1,70,0.00,SCT,BKN,0.04,0.0,WeatherDisplay:10.37,2013-07-22 05:22:00,
2013-07-21 19:27:00,74.7,63.4,29.97,ENE,68,6.0,8.1,68,0.00,SCT,BKN,0.04,0.0,WeatherDisplay:10.37,2013-07-22 05:27:00,
2013-07-21 19:32:00,74.7,63.8,29.97,East,90,6.2,8.1,69,0.00,SCT,BKN,0.04,0.0,WeatherDisplay:10.37,2013-07-22 05:32:00,
2013-07-21 19:37:00,74.7,63.4,29.97,ENE,68,6.2,8.1,68,0.00,SCT,BKN,0.04,0.0,WeatherDisplay:10.37,2013-07-22 05:37:00,
2013-07-21 19:42:00,74.5,62.8,30.00,NE,45,6.2,6.9,67,0.00,SCT,BKN,0.04,0.0,WeatherDisplay:10.37,2013-07-22 05:42:00,
2013-07-21 19:47:00,74.7,63.8,30.00,NE,45,5.6,9.2,69,0.00,SCT,BKN,0.04,0.0,WeatherDisplay:10.37,2013-07-22 05:47:00,
2013-07-21 19:52:00,74.7,64.6,30.00,ENE,68,5.6,5.9,71,0.00,SCT,BKN,0.04,0.0,WeatherDisplay:10.37,2013-07-22 05:52:00,
2013-07-21 19:57:00,74.5,64.1,30.00,East,90,6.0,9.2,70,0.00,SCT,BKN,0.04,0.0,WeatherDisplay:10.37,2013-07-22 05:57:00,
2013-07-21 20:02:00,74.5,64.5,30.00,NE,45,5.4,6.9,71,0.00,SCT,BKN,0.04,0.0,WeatherDisplay:10.37,2013-07-22 06:02:00,
2013-07-21 20:07:00,74.5,64.5,30.00,NE,45,6.7,8.1,71,0.00,SCT,BKN,0.04,0.0,WeatherDisplay:10.37,2013-07-22 06:07:00,
2013-07-21 20:12:00,74.3,64.3,30.00,East,90,7.4,8.1,71,0.00,SCT,BKN,0.04,0.0,WeatherDisplay:10.37,2013-07-22 06:12:00,
2013-07-21 20:17:00,74.5,63.6,30.00,NE,45,4.0,5.8,69,0.00,SCT,BKN,0.04,0.0,WeatherDisplay:10.37,2013-07-22 06:17:00,
2013-07-21 20:22:00,74.5,63.6,30.00,NE,45,5.4,5.8,69,0.00,SCT,BKN,0.04,0.0,WeatherDisplay:10.37,2013-07-22 06:22:00,
2013-07-21 20:27:00,74.5,64.5,30.03,NNE,22,6.7,8.1,71,0.00,SCT,BKN,0.04,0.0,WeatherDisplay:10.37,2013-07-22 06:27:00,
2013-07-21 20:32:00,74.3,63.9,30.03,ENE,68,4.5,5.8,70,0.00,SCT,BKN,0.04,0.0,WeatherDisplay:10.37,2013-07-22 06:32:00,
2013-07-21 20:37:00,74.5,64.5,30.03,North,0,4.7,8.1,71,0.00,SCT,BKN,0.04,0.0,WeatherDisplay:10.37,2013-07-22 06:37:00,
2013-07-21 20:42:00,74.3,63.5,30.03,ENE,68,4.7,6.4,69,0.00,SCT,BKN,0.04,0.0,WeatherDisplay:10.37,2013-07-22 06:42:00,
2013-07-21 20:47:00,74.5,64.1,30.03,ENE,68,3.1,5.8,70,0.00,SCT,BKN,0.04,0.0,WeatherDisplay:10.37,2013-07-22 06:47:00,
2013-07-21 20:52:00,74.5,64.1,30.03,East,90,3.8,5.8,70,0.00,SCT,BKN,0.04,0.0,WeatherDisplay:10.37,2013-07-22 06:52:00,
2013-07-21 20:57:00,74.5,64.5,30.03,ENE,68,4.7,6.9,71,0.00,SCT,BKN,0.04,0.0,WeatherDisplay:10.37,2013-07-22 06:57:00,
2013-07-21 21:02:00,74.5,64.5,30.03,ENE,68,4.9,8.1,71,0.00,SCT,BKN,0.04,0.0,WeatherDisplay:10.37,2013-07-22 07:02:00,
2013-07-21 21:07:00,74.3,65.1,30.03,ENE,68,5.9,5.9,73,0.00,SCT,BKN,0.04,0.0,WeatherDisplay:10.37,2013-07-22 07:07:00,
2013-07-21 21:12:00,74.3,64.7,30.03,NE,45,6.9,8.1,72,0.00,SCT,BKN,0.04,0.0,WeatherDisplay:10.37,2013-07-22 07:12:00,
2013-07-21 21:17:00,74.3,64.3,30.03,ENE,68,5.9,5.9,71,0.00,SCT,BKN,0.04,0.0,WeatherDisplay:10.37,2013-07-22 07:17:00,
2013-07-21 21:22:00,74.3,64.7,30.03,East,90,6.0,6.0,72,0.00,SCT,BKN,0.04,0.0,WeatherDisplay:10.37,2013-07-22 07:22:00,
2013-07-21 21:27:00,74.3,65.1,30.03,NE,45,6.0,6.0,73,0.00,SCT,BKN,0.04,0.0,WeatherDisplay:10.37,2013-07-22 07:27:00,
2013-07-21 21:32:00,74.3,63.9,30.03,ENE,68,6.4,6.9,70,0.00,SCT,BKN,0.04,0.0,WeatherDisplay:10.37,2013-07-22 07:32:00,
2013-07-21 21:37:00,74.3,64.3,30.03,ENE,68,5.4,6.9,71,0.00,SCT,BKN,0.04,0.0,WeatherDisplay:10.37,2013-07-22 07:37:00,
2013-07-21 21:42:00,74.3,65.1,30.03,East,90,5.9,6.9,73,0.00,SCT,BKN,0.04,0.0,WeatherDisplay:10.37,2013-07-22 07:42:00,
2013-07-21 21:47:00,74.3,65.1,30.03,NE,45,3.3,4.6,73,0.00,SCT,BKN,0.04,0.0,WeatherDisplay:10.37,2013-07-22 07:47:00,
2013-07-21 21:52:00,74.1,64.9,30.03,ENE,68,3.6,4.6,73,0.00,SCT,BKN,0.04,0.0,WeatherDisplay:10.37,2013-07-22 07:52:00,
2013-07-21 21:57:00,74.1,64.1,30.03,East,90,4.0,6.9,71,0.00,SCT,BKN,0.04,0.0,WeatherDisplay:10.37,2013-07-22 07:57:00,
2013-07-21 22:02:00,74.1,64.1,30.03,ESE,112,4.5,5.9,71,0.00,SCT,BKN,0.04,0.0,WeatherDisplay:10.37,2013-07-22 08:02:00,
2013-07-21 22:07:00,74.1,64.1,30.03,SW,225,2.2,3.5,71,0.00,SCT,BKN,0.04,0.0,WeatherDisplay:10.37,2013-07-22 08:07:00,
2013-07-21 22:12:00,73.9,64.3,30.06,SSE,158,0.9,5.8,72,0.00,SCT,BKN,0.04,0.0,WeatherDisplay:10.37,2013-07-22 08:12:00,
2013-07-21 22:17:00,73.9,63.9,30.06,West,270,2.6,4.6,71,0.00,SCT,BKN,0.04,0.0,WeatherDisplay:10.37,2013-07-22 08:17:00,
2013-07-21 22:22:00,73.9,64.3,30.06,East,90,3.8,5.8,72,0.00,SCT,BKN,0.04,0.0,WeatherDisplay:10.37,2013-07-22 08:22:00,
2013-07-21 22:27:00,73.8,63.8,30.06,ESE,112,0.0,3.5,71,0.00,SCT,BKN,0.04,0.0,WeatherDisplay:10.37,2013-07-22 08:27:00,
2013-07-21 22:32:00,73.8,64.6,30.06,SE,135,2.9,4.6,73,0.00,SCT,BKN,0.04,0.0,WeatherDisplay:10.37,2013-07-22 08:32:00,
2013-07-21 22:37:00,73.8,64.6,30.06,ENE,68,4.3,4.3,73,0.00,SCT,BKN,0.04,0.0,WeatherDisplay:10.37,2013-07-22 08:37:00,
2013-07-21 22:42:00,73.9,64.3,30.06,SSE,158,6.2,8.1,72,0.00,SCT,BKN,0.04,0.0,WeatherDisplay:10.37,2013-07-22 08:42:00,
2013-07-21 22:47:00,74.1,64.1,30.06,WSW,248,3.6,5.8,71,0.00,SCT,BKN,0.04,0.0,WeatherDisplay:10.37,2013-07-22 08:47:00,
2013-07-21 22:52:00,74.1,64.9,30.06,NE,45,2.0,4.3,73,0.00,SCT,BKN,0.04,0.0,WeatherDisplay:10.37,2013-07-22 08:52:00,
2013-07-21 22:57:00,73.9,65.1,30.06,WSW,248,2.6,3.5,74,0.00,SCT,BKN,0.04,0.0,WeatherDisplay:10.37,2013-07-22 08:57:00,
2013-07-21 23:02:00,73.9,64.7,30.06,South,180,3.6,6.2,73,0.00,SCT,BKN,0.04,0.0,WeatherDisplay:10.37,2013-07-22 09:02:00,
2013-07-21 23:07:00,74.3,64.3,30.06,SSW,202,3.6,5.4,71,0.00,SCT,BKN,0.04,0.0,WeatherDisplay:10.37,2013-07-22 09:07:00,
2013-07-21 23:12:00,74.3,64.3,30.06,South,180,4.0,5.8,71,0.00,SCT,BKN,0.04,0.0,WeatherDisplay:10.37,2013-07-22 09:12:00,
2013-07-21 23:17:00,74.1,64.5,30.06,SSE,158,6.2,8.1,72,0.00,SCT,BKN,0.04,0.0,WeatherDisplay:10.37,2013-07-22 09:17:00,
2013-07-21 23:22:00,74.1,64.9,30.06,SSW,202,3.3,4.6,73,0.00,SCT,BKN,0.04,0.0,WeatherDisplay:10.37,2013-07-22 09:22:00,
2013-07-21 23:27:00,74.1,64.5,30.06,SSW,202,2.2,3.5,72,0.00,SCT,BKN,0.04,0.0,WeatherDisplay:10.37,2013-07-22 09:27:00,
2013-07-21 23:32:00,73.9,64.3,30.06,SSE,158,4.0,5.8,72,0.00,SCT,BKN,0.04,0.0,WeatherDisplay:10.37,2013-07-22 09:32:00,
2013-07-21 23:37:00,73.9,64.3,30.06,SSW,202,2.9,3.5,72,0.00,SCT,BKN,0.04,0.0,WeatherDisplay:10.37,2013-07-22 09:37:00,
2013-07-21 23:42:00,73.9,64.3,30.06,West,270,0.0,5.8,72,0.00,SCT,BKN,0.04,0.0,WeatherDisplay:10.37,2013-07-22 09:42:00,
2013-07-21 23:47:00,74.1,64.5,30.06,West,270,1.6,3.6,72,0.00,SCT,BKN,0.04,0.0,WeatherDisplay:10.37,2013-07-22 09:47:00,
2013-07-21 23:52:00,74.1,64.5,30.06,South,180,3.8,6.9,72,0.00,SCT,BKN,0.04,0.0,WeatherDisplay:10.37,2013-07-22 09:52:00,
2013-07-21 23:57:00,74.5,64.9,30.06,WSW,248,3.6,5.8,72,0.00,SCT,BKN,0.04,0.0,WeatherDisplay:10.37,2013-07-22 09:57:00,